Regional Weather Roundup
Issued by NWS

Home | Current Version | Previous Version | Text Only | Print | Product List | Glossary Off
Versions: 1 2 3 4 5 6 7 8 9 10 11 12 13 14 15 16 17 18 19 20 21 22 23 24 25 26 27 28 29 30 31 32 33 34 35 36 37 38 39 40 41 42 43 44 45 46 47 48 49 50

388
ASUS45 KBOI 230810
RWRID

IDAHO REGIONAL WEATHER ROUNDUP
NATIONAL WEATHER SERVICE BOISE ID
200 AM MDT MON OCT 23 2017

NOTE: "FAIR" INDICATES FEW OR NO CLOUDS BELOW 12000 FEET
WITH NO SIGNIFICANT WEATHER AND/OR OBSTRUCTIONS TO VISIBILITY

IDZ012-014-230900-
SOUTHWEST IDAHO


CITY           SKY/WX    TMP DP  RH WIND       PRES   REMARKS
BOISE          PTCLDY    44  42  93 CALM      30.48R
CALDWELL       PTCLDY    45  44  97 W5        30.49
MOUNTAIN HOME  PTCLDY    46  46 100 W6        30.46S
$$

IDZ016-017-230900-
SOUTHCENTRAL IDAHO


CITY           SKY/WX    TMP DP  RH WIND       PRES   REMARKS
BURLEY         MOCLDY    49  43  80 W16       30.43F
JEROME         PTCLDY    47  45  93 SW14      30.43F
TWIN FALLS     PTCLDY    46  44  93 S15       30.45F
$$

IDZ019>023-230900-
SOUTHEAST IDAHO


CITY           SKY/WX    TMP DP  RH WIND       PRES   REMARKS
IDAHO FALLS    CLOUDY    42  38  85 SW3       30.42R
POCATELLO      CLOUDY    48  41  76 SW16      30.44R
REXBURG        CLOUDY    43  36  76 CALM      30.40R
$$

IDZ006-010-011-018-031-032-230900-
CENTRAL IDAHO MOUNTAINS


CITY           SKY/WX    TMP DP  RH WIND       PRES   REMARKS
MCCALL         PTCLDY    33  32  96 CALM      30.48R FOG
HAILEY         PTCLDY    41  32  70 CALM      30.44R
STANLEY          N/A     33  30  88 CALM      30.49R
SALMON         CLOUDY    39  31  72 SE5       30.45R
CHALLIS        PTCLDY    36  27  69 E6        30.44R WCI  31
$$

IDZ002-004-006-007-026-230900-
NORTHERN IDAHO


CITY           SKY/WX    TMP DP  RH WIND       PRES   REMARKS
LEWISTON       MOCLDY    50  39  66 VRB6      30.47R
LOWELL           N/A     46  45  96 CALM      30.52R
COEUR D`ALENE  CLEAR     44  33  65 NW3       30.44R
MULLAN PASS    CLOUDY    32  27  81 VRB5      30.39R WCI  27
$$




USA.gov is the U.S. government's official web portal to all federal, state and local government web resources and services.